| time (UTC) | temp F | wind direction | speed MPH | gust MPH | rain 1hr in | rain 24hr in | rain mn in | humidity % | barometer mb |
| 20260903152211 | 69 | 174 | 4.0 | 4.0 | 0.00 | 0.00 | 0.00 | 77 | 1013.4 |
| 20260903151705 | 70 | 136 | 2.0 | 6.0 | 0.00 | 0.00 | 0.00 | 76 | 1013.1 |
| 20260903150652 | 71 | 137 | 3.0 | 7.0 | 0.00 | 0.00 | 0.00 | 75 | 1013.1 |
| 20260903150145 | 70 | 299 | 0.0 | 2.0 | 0.00 | 0.00 | 0.00 | 76 | 1013.1 |
| 20260903145640 | 70 | 29 | 1.0 | 2.0 | 0.00 | 0.00 | 0.00 | 77 | 1013.1 |
| 20260903144626 | 69 | 162 | 2.0 | 4.0 | 0.00 | 0.00 | 0.00 | 78 | 1013.1 |
| 20260903144122 | 69 | 247 | 1.0 | 3.0 | 0.00 | 0.00 | 0.00 | 78 | 1013.1 |
| 20260903143613 | 69 | 280 | 0.0 | 4.0 | 0.00 | 0.00 | 0.00 | 79 | 1013.1 |
| 20260903143106 | 69 | 94 | 1.0 | 4.0 | 0.00 | 0.00 | 0.00 | 79 | 1013.1 |
| 20260903142600 | 69 | 111 | 2.0 | 3.0 | 0.00 | 0.00 | 0.00 | 79 | 1012.8 |
| 20260903141547 | 68 | 52 | 1.0 | 3.0 | 0.00 | 0.00 | 0.00 | 81 | 1012.8 |
| 20260903141041 | 68 | 50 | 0.0 | 3.0 | 0.00 | 0.00 | 0.00 | 82 | 1012.8 |
| 20260903140533 | 67 | 306 | 1.0 | 4.0 | 0.00 | 0.00 | 0.00 | 82 | 1012.8 |
| 20260903140027 | 67 | 164 | 1.0 | 4.0 | 0.00 | 0.00 | 0.00 | 82 | 1012.8 |
| 20260903135520 | 67 | 63 | 2.0 | 4.0 | 0.00 | 0.00 | 0.00 | 83 | 1012.8 |
| 20260903135014 | 67 | 15 | 1.0 | 6.0 | 0.00 | 0.00 | 0.00 | 83 | 1012.8 |
| 20260903134508 | 67 | 180 | 3.0 | 6.0 | 0.00 | 0.00 | 0.00 | 84 | 1012.4 |
| 20260903134002 | 67 | 64 | 3.0 | 6.0 | 0.00 | 0.00 | 0.00 | 84 | 1012.4 |
| 20260903133454 | 67 | 106 | 4.0 | 6.0 | 0.00 | 0.00 | 0.00 | 84 | 1012.4 |
| 20260903132948 | 67 | 7 | 0.0 | 6.0 | 0.00 | 0.00 | 0.00 | 84 | 1012.4 |
| 20260903131936 | 67 | 108 | 3.0 | 6.0 | 0.00 | 0.00 | 0.00 | 84 | 1012.8 |
| 20260903131428 | 67 | 61 | 4.0 | 6.0 | 0.00 | 0.00 | 0.00 | 84 | 1012.8 |
| 20260903130922 | 67 | 128 | 3.0 | 3.0 | 0.00 | 0.00 | 0.00 | 83 | 1012.4 |
| 20260903130416 | 67 | 346 | 0.0 | 3.0 | 0.00 | 0.00 | 0.00 | 83 | 1012.8 |
| 20260903125909 | 67 | 9 | 1.0 | 4.0 | 0.00 | 0.00 | 0.00 | 83 | 1012.8 |
| 20260903125403 | 67 | 327 | 1.0 | 4.0 | 0.00 | 0.00 | 0.00 | 83 | 1012.8 |
| 20260903124857 | 67 | 70 | 3.0 | 6.0 | 0.00 | 0.00 | 0.00 | 83 | 1012.8 |
| 20260903124349 | 67 | 29 | 3.0 | 6.0 | 0.00 | 0.00 | 0.00 | 83 | 1012.8 |
| 20260903123337 | 67 | 24 | 3.0 | 6.0 | 0.00 | 0.00 | 0.00 | 83 | 1012.4 |
| 20260903122830 | 67 | 33 | 4.0 | 6.0 | 0.00 | 0.00 | 0.00 | 83 | 1012.4 |
| 20260903122324 | 67 | 38 | 2.0 | 6.0 | 0.00 | 0.00 | 0.00 | 83 | 1012.4 |
| 20260903121311 | 67 | 354 | 2.0 | 6.0 | 0.00 | 0.00 | 0.00 | 82 | 1012.8 |
| 20260903120804 | 67 | 25 | 2.0 | 4.0 | 0.00 | 0.00 | 0.00 | 82 | 1012.4 |
| 20260903120258 | 67 | 54 | 2.0 | 3.0 | 0.00 | 0.00 | 0.00 | 82 | 1012.4 |
| 20260903115751 | 67 | 19 | 2.0 | 3.0 | 0.00 | 0.00 | 0.00 | 81 | 1012.8 |
| 20260903115245 | 66 | 357 | 2.0 | 4.0 | 0.00 | 0.00 | 0.00 | 81 | 1012.8 |
| 20260903114738 | 66 | 356 | 2.0 | 4.0 | 0.00 | 0.00 | 0.00 | 81 | 1012.8 |
| 20260903114231 | 66 | 44 | 2.0 | 4.0 | 0.00 | 0.00 | 0.00 | 81 | 1012.8 |
| 20260903113725 | 66 | 32 | 3.0 | 3.0 | 0.00 | 0.00 | 0.00 | 81 | 1012.8 |
| 20260903112713 | 66 | 27 | 2.0 | 4.0 | 0.00 | 0.00 | 0.00 | 80 | 1012.8 |
| 20260903112206 | 66 | 10 | 2.0 | 4.0 | 0.00 | 0.00 | 0.00 | 81 | 1012.8 |
| 20260903111659 | 66 | 9 | 2.0 | 4.0 | 0.00 | 0.00 | 0.00 | 81 | 1012.8 |
| 20260903111153 | 66 | 42 | 1.0 | 4.0 | 0.00 | 0.00 | 0.00 | 81 | 1012.8 |
| 20260903110647 | 66 | 19 | 2.0 | 6.0 | 0.00 | 0.00 | 0.00 | 81 | 1012.8 |
| 20260903110141 | 66 | 10 | 2.0 | 6.0 | 0.00 | 0.00 | 0.00 | 81 | 1012.8 |
| 20260903105634 | 66 | 12 | 2.0 | 4.0 | 0.00 | 0.00 | 0.00 | 81 | 1012.8 |
| 20260903104621 | 66 | 329 | 1.0 | 3.0 | 0.00 | 0.00 | 0.00 | 82 | 1012.8 |
| 20260903103607 | 66 | 71 | 3.0 | 4.0 | 0.00 | 0.00 | 0.00 | 81 | 1012.8 |
| 20260903103101 | 66 | 35 | 2.0 | 4.0 | 0.00 | 0.00 | 0.00 | 81 | 1012.8 |
| 20260903102554 | 66 | 3 | 2.0 | 6.0 | 0.00 | 0.00 | 0.00 | 80 | 1012.8 |
| 20260903102048 | 66 | 42 | 2.0 | 6.0 | 0.00 | 0.00 | 0.00 | 80 | 1012.8 |
| 20260903101543 | 66 | 19 | 3.0 | 4.0 | 0.00 | 0.00 | 0.00 | 80 | 1013.1 |
| 20260903101035 | 66 | 20 | 2.0 | 4.0 | 0.00 | 0.00 | 0.00 | 80 | 1012.8 |
| 20260903100528 | 66 | 10 | 2.0 | 4.0 | 0.00 | 0.00 | 0.00 | 79 | 1012.8 |
| 20260903100022 | 66 | 349 | 2.0 | 4.0 | 0.00 | 0.00 | 0.00 | 79 | 1013.1 |
| 20260903095516 | 66 | 356 | 2.0 | 4.0 | 0.00 | 0.00 | 0.00 | 79 | 1012.8 |
| 20260903094502 | 66 | 29 | 3.0 | 4.0 | 0.00 | 0.00 | 0.00 | 78 | 1013.1 |
| 20260903093956 | 66 | 42 | 3.0 | 4.0 | 0.00 | 0.00 | 0.00 | 78 | 1013.1 |
| 20260903093450 | 66 | 30 | 4.0 | 4.0 | 0.00 | 0.00 | 0.00 | 78 | 1012.8 |
| 20260903092436 | 66 | 19 | 3.0 | 4.0 | 0.00 | 0.00 | 0.00 | 77 | 1013.1 |
| 20260903091930 | 66 | 18 | 3.0 | 4.0 | 0.00 | 0.00 | 0.00 | 77 | 1013.4 |
| 20260903091424 | 66 | 22 | 3.0 | 4.0 | 0.00 | 0.00 | 0.00 | 77 | 1013.1 |
| 20260903090919 | 66 | 30 | 3.0 | 4.0 | 0.00 | 0.00 | 0.00 | 76 | 1013.4 |
| 20260903090411 | 66 | 14 | 3.0 | 3.0 | 0.00 | 0.00 | 0.00 | 76 | 1013.4 |
| 20260903085904 | 66 | 359 | 2.0 | 4.0 | 0.00 | 0.00 | 0.00 | 76 | 1013.1 |
| 20260903085357 | 66 | 339 | 1.0 | 4.0 | 0.00 | 0.00 | 0.00 | 76 | 1013.4 |
| 20260903084851 | 66 | 339 | 1.0 | 3.0 | 0.00 | 0.00 | 0.00 | 75 | 1013.4 |
| 20260903084345 | 66 | 0 | 1.0 | 3.0 | 0.00 | 0.00 | 0.00 | 75 | 1013.4 |
| 20260903083839 | 66 | 6 | 2.0 | 3.0 | 0.00 | 0.00 | 0.00 | 75 | 1013.4 |
| 20260903083332 | 66 | 343 | 1.0 | 3.0 | 0.00 | 0.00 | 0.00 | 74 | 1013.4 |
| 20260903082825 | 67 | 353 | 1.0 | 3.0 | 0.00 | 0.00 | 0.00 | 74 | 1013.4 |
| 20260903082319 | 67 | 339 | 2.0 | 4.0 | 0.00 | 0.00 | 0.00 | 74 | 1013.4 |
| 20260903081813 | 67 | 4 | 3.0 | 4.0 | 0.00 | 0.00 | 0.00 | 73 | 1013.4 |
| 20260903080800 | 66 | 17 | 2.0 | 4.0 | 0.00 | 0.00 | 0.00 | 73 | 1013.4 |
| 20260903080253 | 66 | 6 | 1.0 | 2.0 | 0.00 | 0.00 | 0.00 | 72 | 1013.4 |
| 20260903075746 | 66 | 334 | 1.0 | 2.0 | 0.00 | 0.00 | 0.00 | 71 | 1013.4 |
| 20260903075240 | 66 | 328 | 1.0 | 3.0 | 0.00 | 0.00 | 0.00 | 71 | 1013.8 |
| 20260903074734 | 67 | 331 | 1.0 | 3.0 | 0.00 | 0.00 | 0.00 | 71 | 1013.4 |
| 20260903073721 | 66 | 1 | 1.0 | 3.0 | 0.00 | 0.00 | 0.00 | 71 | 1013.4 |
| 20260903073214 | 66 | 336 | 0.0 | 3.0 | 0.00 | 0.00 | 0.00 | 71 | 1013.8 |
| 20260903072708 | 66 | 13 | 1.0 | 3.0 | 0.00 | 0.00 | 0.00 | 71 | 1013.4 |
| 20260903072202 | 66 | 339 | 1.0 | 2.0 | 0.00 | 0.00 | 0.00 | 71 | 1013.4 |
| 20260903071654 | 66 | 336 | 2.0 | 2.0 | 0.00 | 0.00 | 0.00 | 71 | 1013.4 |
| 20260903070642 | 66 | 323 | 1.0 | 1.0 | 0.00 | 0.00 | 0.00 | 69 | 1013.4 |
| 20260903070135 | 67 | 323 | 0.0 | 2.0 | 0.00 | 0.00 | 0.00 | 69 | 1013.4 |
| 20260903065628 | 67 | 310 | 0.0 | 2.0 | 0.00 | 0.00 | 0.00 | 68 | 1013.8 |
| 20260903065122 | 67 | 332 | 0.0 | 2.0 | 0.00 | 0.00 | 0.00 | 68 | 1013.4 |
| 20260903064616 | 67 | 339 | 1.0 | 2.0 | 0.00 | 0.00 | 0.00 | 68 | 1013.4 |
| 20260903064109 | 67 | 337 | 1.0 | 2.0 | 0.00 | 0.00 | 0.00 | 68 | 1013.4 |
| 20260903063603 | 67 | 333 | 1.0 | 2.0 | 0.00 | 0.00 | 0.00 | 68 | 1013.4 |
| 20260903063056 | 67 | 348 | 1.0 | 2.0 | 0.00 | 0.00 | 0.00 | 68 | 1013.4 |
| 20260903062550 | 67 | 321 | 1.0 | 1.0 | 0.00 | 0.00 | 0.00 | 68 | 1013.4 |
| 20260903062043 | 67 | 340 | 1.0 | 1.0 | 0.00 | 0.00 | 0.00 | 68 | 1013.4 |
| 20260903061537 | 68 | 326 | 1.0 | 3.0 | 0.00 | 0.00 | 0.00 | 68 | 1013.4 |
| 20260903061030 | 68 | 355 | 1.0 | 3.0 | 0.00 | 0.00 | 0.00 | 67 | 1013.4 |
| 20260903060524 | 68 | 6 | 2.0 | 3.0 | 0.00 | 0.00 | 0.00 | 67 | 1013.4 |
| 20260903060017 | 68 | 25 | 2.0 | 2.0 | 0.00 | 0.00 | 0.00 | 68 | 1013.4 |
| 20260903055511 | 68 | 354 | 1.0 | 2.0 | 0.00 | 0.00 | 0.00 | 70 | 1013.4 |
| 20260903053951 | 68 | 335 | 0.0 | 0.0 | 0.00 | 0.00 | 0.00 | 70 | 1013.1 |
| 20260903053446 | 68 | 335 | 0.0 | 1.0 | 0.00 | 0.00 | 0.00 | 70 | 1013.4 |
| 20260903052938 | 68 | 335 | 0.0 | 1.0 | 0.00 | 0.00 | 0.00 | 70 | 1013.4 |
| 20260903052432 | 68 | 334 | 1.0 | 1.0 | 0.00 | 0.00 | 0.00 | 70 | 1013.1 |
| 20260903051926 | 68 | 313 | 0.0 | 1.0 | 0.00 | 0.00 | 0.00 | 70 | 1013.4 |
| 20260903050912 | 69 | 310 | 1.0 | 2.0 | 0.00 | 0.00 | 0.00 | 69 | 1013.4 |
| 20260903045859 | 69 | 317 | 0.0 | 2.0 | 0.00 | 0.00 | 0.00 | 68 | 1013.1 |
| 20260903044846 | 70 | 355 | 1.0 | 3.0 | 0.00 | 0.00 | 0.00 | 68 | 1013.4 |
| 20260903044340 | 70 | 0 | 2.0 | 3.0 | 0.00 | 0.00 | 0.00 | 68 | 1013.4 |
| 20260903043833 | 70 | 3 | 1.0 | 4.0 | 0.00 | 0.00 | 0.00 | 68 | 1013.4 |
| 20260903043327 | 70 | 23 | 1.0 | 6.0 | 0.00 | 0.00 | 0.00 | 68 | 1013.1 |
| 20260903042821 | 70 | 43 | 4.0 | 6.0 | 0.00 | 0.00 | 0.00 | 68 | 1013.1 |
| 20260903042314 | 70 | 39 | 3.0 | 6.0 | 0.00 | 0.00 | 0.00 | 68 | 1013.1 |
| 20260903041301 | 70 | 27 | 4.0 | 4.0 | 0.00 | 0.00 | 0.00 | 67 | 1013.1 |
| 20260903040755 | 70 | 48 | 4.0 | 4.0 | 0.00 | 0.00 | 0.00 | 67 | 1013.1 |
| 20260903035235 | 71 | 19 | 2.0 | 6.0 | 0.00 | 0.00 | 0.00 | 66 | 1013.1 |
| 20260903034223 | 71 | 41 | 3.0 | 4.0 | 0.00 | 0.00 | 0.00 | 66 | 1012.8 |
| 20260903033716 | 71 | 340 | 1.0 | 6.0 | 0.00 | 0.00 | 0.00 | 66 | 1012.8 |
| 20260903033209 | 71 | 43 | 3.0 | 7.0 | 0.00 | 0.00 | 0.00 | 66 | 1012.8 |
| 20260903032702 | 71 | 44 | 4.0 | 7.0 | 0.00 | 0.00 | 0.00 | 66 | 1012.8 |
| 20260903031649 | 71 | 19 | 3.0 | 6.0 | 0.00 | 0.00 | 0.00 | 65 | 1012.4 |
| 20260903031143 | 71 | 19 | 3.0 | 6.0 | 0.00 | 0.00 | 0.00 | 67 | 1012.4 |
| 20260903030637 | 71 | 18 | 1.0 | 6.0 | 0.00 | 0.00 | 0.00 | 66 | 1012.4 |
| 20260903030130 | 72 | 11 | 2.0 | 6.0 | 0.00 | 0.00 | 0.00 | 66 | 1012.4 |
| 20260903025117 | 71 | 59 | 2.0 | 4.0 | 0.00 | 0.00 | 0.00 | 65 | 1012.8 |
| 20260903024611 | 71 | 35 | 2.0 | 4.0 | 0.00 | 0.00 | 0.00 | 64 | 1012.4 |
| 20260903024104 | 71 | 71 | 3.0 | 4.0 | 0.00 | 0.00 | 0.00 | 63 | 1012.4 |
| 20260903023557 | 71 | 51 | 2.0 | 3.0 | 0.00 | 0.00 | 0.00 | 63 | 1012.4 |
| 20260903020519 | 72 | 321 | 0.0 | 2.0 | 0.00 | 0.00 | 0.00 | 62 | 1012.4 |
| 20260903020012 | 73 | 276 | 0.0 | 3.0 | 0.00 | 0.00 | 0.00 | 62 | 1012.4 |
| 20260903014958 | 72 | 237 | 2.0 | 4.0 | 0.00 | 0.00 | 0.00 | 62 | 1012.4 |
| 20260903014452 | 73 | 260 | 2.0 | 8.0 | 0.00 | 0.00 | 0.00 | 62 | 1012.8 |
| 20260903013946 | 72 | 246 | 3.0 | 8.0 | 0.00 | 0.00 | 0.00 | 63 | 1012.8 |
| 20260903013439 | 72 | 212 | 6.0 | 8.0 | 0.00 | 0.00 | 0.00 | 63 | 1012.8 |
| 20260903011919 | 72 | 225 | 6.0 | 11.0 | 0.00 | 0.00 | 0.00 | 67 | 1012.8 |
| 20260903011413 | 72 | 219 | 8.0 | 11.0 | 0.00 | 0.00 | 0.00 | 68 | 1012.8 |
| 20260903010907 | 72 | 262 | 6.0 | 11.0 | 0.00 | 0.00 | 0.00 | 67 | 1012.8 |
| 20260903010400 | 72 | 236 | 5.0 | 11.0 | 0.00 | 0.00 | 0.00 | 67 | 1012.8 |
| 20260903004841 | 73 | 244 | 5.0 | 11.0 | 0.00 | 0.00 | 0.00 | 66 | 1012.8 |
| 20260903004335 | 73 | 223 | 4.0 | 14.0 | 0.00 | 0.00 | 0.00 | 67 | 1012.8 |
| 20260903003828 | 73 | 215 | 6.0 | 13.0 | 0.00 | 0.00 | 0.00 | 67 | 1012.8 |
| 20260903003321 | 73 | 253 | 8.0 | 13.0 | 0.00 | 0.00 | 0.00 | 67 | 1012.8 |
| 20260903002815 | 73 | 232 | 8.0 | 14.0 | 0.00 | 0.00 | 0.00 | 67 | 1012.8 |
| 20260903002308 | 73 | 268 | 11.0 | 14.0 | 0.00 | 0.00 | 0.00 | 67 | 1012.8 |
| 20260903001802 | 73 | 219 | 4.0 | 14.0 | 0.00 | 0.00 | 0.00 | 67 | 1012.8 |
| 20260903001255 | 73 | 191 | 10.0 | 14.0 | 0.00 | 0.00 | 0.00 | 65 | 1012.8 |
| 20260903000749 | 74 | 248 | 3.0 | 13.0 | 0.00 | 0.00 | 0.00 | 64 | 1013.1 |
| 20260903000241 | 74 | 257 | 10.0 | 14.0 | 0.00 | 0.00 | 0.00 | 63 | 1012.8 |
| 20260902235735 | 74 | 202 | 9.0 | 14.0 | 0.00 | 0.00 | 0.00 | 61 | 1013.1 |
| 20260902234216 | 74 | 252 | 7.0 | 10.0 | 0.00 | 0.00 | 0.00 | 61 | 1013.1 |
| 20260902233709 | 74 | 269 | 5.0 | 10.0 | 0.00 | 0.00 | 0.00 | 61 | 1013.1 |
| 20260902233203 | 74 | 257 | 5.0 | 14.0 | 0.00 | 0.00 | 0.00 | 62 | 1013.1 |
| 20260902232150 | 74 | 285 | 10.0 | 15.0 | 0.00 | 0.00 | 0.00 | 64 | 1013.1 |
| 20260902231136 | 74 | 221 | 11.0 | 13.0 | 0.00 | 0.00 | 0.00 | 64 | 1013.4 |
| 20260902230630 | 74 | 210 | 8.0 | 14.0 | 0.00 | 0.00 | 0.00 | 66 | 1013.4 |
| 20260902230124 | 74 | 220 | 11.0 | 13.0 | 0.00 | 0.00 | 0.00 | 65 | 1013.4 |
| 20260902225617 | 74 | 249 | 6.0 | 13.0 | 0.00 | 0.00 | 0.00 | 65 | 1013.4 |
| 20260902225110 | 74 | 220 | 6.0 | 13.0 | 0.00 | 0.00 | 0.00 | 63 | 1013.4 |
| 20260902224604 | 74 | 230 | 6.0 | 11.0 | 0.00 | 0.00 | 0.00 | 64 | 1013.4 |
| 20260902224058 | 74 | 252 | 4.0 | 14.0 | 0.00 | 0.00 | 0.00 | 65 | 1013.4 |
| 20260902223551 | 74 | 232 | 8.0 | 14.0 | 0.00 | 0.00 | 0.00 | 66 | 1013.4 |
| 20260902223044 | 74 | 273 | 7.0 | 14.0 | 0.00 | 0.00 | 0.00 | 66 | 1013.4 |
| 20260902222538 | 74 | 235 | 9.0 | 14.0 | 0.00 | 0.00 | 0.00 | 65 | 1013.8 |
| 20260902222031 | 74 | 233 | 7.0 | 13.0 | 0.00 | 0.00 | 0.00 | 67 | 1013.4 |
| 20260902221524 | 74 | 240 | 6.0 | 14.0 | 0.00 | 0.00 | 0.00 | 67 | 1013.8 |
| 20260902221018 | 75 | 265 | 6.0 | 14.0 | 0.00 | 0.00 | 0.00 | 65 | 1013.8 |
| 20260902220512 | 75 | 202 | 7.0 | 15.0 | 0.00 | 0.00 | 0.00 | 64 | 1013.8 |
| 20260902220006 | 74 | 246 | 7.0 | 15.0 | 0.00 | 0.00 | 0.00 | 64 | 1013.8 |
| 20260902214952 | 76 | 239 | 12.0 | 14.0 | 0.00 | 0.00 | 0.00 | 61 | 1014.1 |
| 20260902213940 | 76 | 234 | 11.0 | 15.0 | 0.00 | 0.00 | 0.00 | 61 | 1014.1 |
| 20260902213433 | 75 | 292 | 5.0 | 15.0 | 0.00 | 0.00 | 0.00 | 61 | 1014.1 |
| 20260902212926 | 76 | 176 | 6.0 | 14.0 | 0.00 | 0.00 | 0.00 | 61 | 1014.1 |
| 20260902211913 | 75 | 228 | 8.0 | 15.0 | 0.00 | 0.00 | 0.00 | 60 | 1014.1 |
| 20260902211407 | 76 | 195 | 9.0 | 14.0 | 0.00 | 0.00 | 0.00 | 59 | 1014.1 |
| 20260902205848 | 77 | 232 | 7.0 | 11.0 | 0.00 | 0.00 | 0.00 | 57 | 1014.5 |
| 20260902205340 | 76 | 256 | 6.0 | 11.0 | 0.00 | 0.00 | 0.00 | 57 | 1014.5 |
| 20260902203821 | 75 | 231 | 5.0 | 14.0 | 0.00 | 0.00 | 0.00 | 59 | 1014.5 |
| 20260902203315 | 76 | 227 | 7.0 | 11.0 | 0.00 | 0.00 | 0.00 | 56 | 1014.5 |
| 20260902202301 | 75 | 263 | 8.0 | 13.0 | 0.00 | 0.00 | 0.00 | 59 | 1014.5 |
| 20260902201250 | 75 | 196 | 6.0 | 14.0 | 0.00 | 0.00 | 0.00 | 61 | 1014.8 |
| 20260902200235 | 74 | 228 | 7.0 | 11.0 | 0.00 | 0.00 | 0.00 | 61 | 1014.8 |
| 20260902195729 | 74 | 249 | 7.0 | 11.0 | 0.00 | 0.00 | 0.00 | 61 | 1014.8 |
| 20260902195225 | 74 | 236 | 8.0 | 11.0 | 0.00 | 0.00 | 0.00 | 61 | 1014.8 |
| 20260902194715 | 74 | 250 | 7.0 | 11.0 | 0.00 | 0.00 | 0.00 | 61 | 1015.1 |
| 20260902194209 | 75 | 222 | 9.0 | 11.0 | 0.00 | 0.00 | 0.00 | 60 | 1015.1 |
| 20260902193703 | 74 | 222 | 7.0 | 10.0 | 0.00 | 0.00 | 0.00 | 61 | 1015.1 |
| 20260902193156 | 74 | 290 | 4.0 | 11.0 | 0.00 | 0.00 | 0.00 | 63 | 1015.1 |
| 20260902192650 | 74 | 250 | 8.0 | 11.0 | 0.00 | 0.00 | 0.00 | 64 | 1015.1 |
| 20260902192143 | 73 | 221 | 6.0 | 11.0 | 0.00 | 0.00 | 0.00 | 65 | 1015.1 |
| 20260902191636 | 74 | 230 | 11.0 | 11.0 | 0.00 | 0.00 | 0.00 | 65 | 1015.1 |
| 20260902191130 | 74 | 262 | 8.0 | 9.0 | 0.00 | 0.00 | 0.00 | 64 | 1015.1 |
| 20260902190624 | 73 | 230 | 3.0 | 10.0 | 0.00 | 0.00 | 0.00 | 66 | 1015.1 |
| 20260902190118 | 74 | 239 | 9.0 | 10.0 | 0.00 | 0.00 | 0.00 | 65 | 1015.1 |
| 20260902185610 | 74 | 265 | 4.0 | 10.0 | 0.00 | 0.00 | 0.00 | 64 | 1015.1 |
| 20260902185104 | 74 | 232 | 3.0 | 10.0 | 0.00 | 0.00 | 0.00 | 65 | 1015.1 |
| 20260902184558 | 74 | 185 | 6.0 | 10.0 | 0.00 | 0.00 | 0.00 | 66 | 1015.5 |
| 20260902184051 | 74 | 188 | 8.0 | 10.0 | 0.00 | 0.00 | 0.00 | 67 | 1015.5 |
| 20260902183544 | 74 | 282 | 5.0 | 10.0 | 0.00 | 0.00 | 0.00 | 67 | 1015.5 |
| 20260902183040 | 73 | 235 | 7.0 | 10.0 | 0.00 | 0.00 | 0.00 | 67 | 1015.5 |
| 20260902182531 | 73 | 262 | 3.0 | 10.0 | 0.00 | 0.00 | 0.00 | 67 | 1015.5 |
| 20260902182024 | 74 | 245 | 6.0 | 9.0 | 0.00 | 0.00 | 0.00 | 67 | 1015.5 |
| 20260902181518 | 73 | 206 | 4.0 | 8.0 | 0.00 | 0.00 | 0.00 | 67 | 1015.5 |
| 20260902180504 | 73 | 220 | 5.0 | 9.0 | 0.00 | 0.00 | 0.00 | 66 | 1015.5 |
| 20260902175958 | 73 | 271 | 3.0 | 7.0 | 0.00 | 0.00 | 0.00 | 67 | 1015.1 |
| 20260902175452 | 73 | 229 | 4.0 | 8.0 | 0.00 | 0.00 | 0.00 | 68 | 1015.1 |
| 20260902174946 | 73 | 242 | 5.0 | 8.0 | 0.00 | 0.00 | 0.00 | 67 | 1015.1 |
| 20260902174439 | 73 | 195 | 5.0 | 8.0 | 0.00 | 0.00 | 0.00 | 68 | 1015.1 |
| 20260902173932 | 73 | 203 | 2.0 | 7.0 | 0.00 | 0.00 | 0.00 | 68 | 1015.5 |
| 20260902173426 | 73 | 235 | 3.0 | 7.0 | 0.00 | 0.00 | 0.00 | 68 | 1015.1 |
| 20260902172919 | 74 | 211 | 6.0 | 7.0 | 0.00 | 0.00 | 0.00 | 67 | 1015.5 |
| 20260902171907 | 74 | 20 | 1.0 | 4.0 | 0.00 | 0.00 | 0.00 | 63 | 1015.5 |
| 20260902171400 | 75 | 245 | 1.0 | 6.0 | 0.00 | 0.00 | 0.00 | 62 | 1015.1 |
| 20260902170853 | 74 | 43 | 1.0 | 6.0 | 0.00 | 0.00 | 0.00 | 64 | 1015.1 |
| 20260902165841 | 72 | 173 | 0.0 | 7.0 | 0.00 | 0.00 | 0.00 | 68 | 1015.1 |
| 20260902164827 | 72 | 256 | 2.0 | 8.0 | 0.00 | 0.00 | 0.00 | 68 | 1015.1 |
| 20260902163814 | 72 | 169 | 3.0 | 7.0 | 0.00 | 0.00 | 0.00 | 68 | 1014.8 |
| 20260902163308 | 72 | 257 | 1.0 | 7.0 | 0.00 | 0.00 | 0.00 | 68 | 1015.1 |
| 20260902162801 | 72 | 182 | 4.0 | 6.0 | 0.00 | 0.00 | 0.00 | 68 | 1015.1 |
| 20260902162254 | 73 | 236 | 2.0 | 4.0 | 0.00 | 0.00 | 0.00 | 67 | 1015.1 |
| 20260902161748 | 72 | 291 | 0.0 | 3.0 | 0.00 | 0.00 | 0.00 | 69 | 1015.1 |
| 20260902161242 | 71 | 226 | 2.0 | 6.0 | 0.00 | 0.00 | 0.00 | 71 | 1015.1 |
| 20260902160735 | 70 | 156 | 2.0 | 6.0 | 0.00 | 0.00 | 0.00 | 72 | 1015.1 |
| 20260902160229 | 70 | 197 | 4.0 | 6.0 | 0.00 | 0.00 | 0.00 | 72 | 1015.1 |
| 20260902155722 | 70 | 154 | 1.0 | 4.0 | 0.00 | 0.00 | 0.00 | 71 | 1015.1 |
| 20260902155216 | 70 | 173 | 2.0 | 3.0 | 0.00 | 0.00 | 0.00 | 71 | 1015.1 |
| 20260902154709 | 71 | 231 | 2.0 | 6.0 | 0.00 | 0.00 | 0.00 | 72 | 1015.1 |
| 20260902154203 | 71 | 187 | 2.0 | 6.0 | 0.00 | 0.00 | 0.00 | 73 | 1015.1 |
| 20260902153657 | 70 | 291 | 0.0 | 3.0 | 0.00 | 0.00 | 0.00 | 74 | 1014.8 |
| 20260902153151 | 70 | 266 | 1.0 | 3.0 | 0.00 | 0.00 | 0.00 | 74 | 1014.8 |
| 20260902152643 | 70 | 234 | 1.0 | 3.0 | 0.00 | 0.00 | 0.00 | 75 | 1015.1 |